TIME,DELAY(SENSOR),PRES,OXYGEN,RAWTEMP,T(OPTODE),TCPHASE,FLUOR,BETA(BETA700),BETA(BETA412),BETA(BETA440),CDOM,C(CSC),ED(ED411.90),ED(ED443.80),ED(ED489.40),ED(ED554.70),LU(LU412.20),LU(LU443.80),LU(LU489.40),LU(LU555.00),COMP,TILTX,TILTY,CHECK
1352242337,5802,860.7899780273438000,165.6479034423828000,418.6925048828125000,10.4053602218627930,39.4122810363769500,50,103,61,68,53,1671,2147455515,2147787355,2147573988,2147813046,2147310491,2147459602,2147742308,2148267355,530,6,13,7941
1352245934,5805,6.5999999046325680,189.0684967041015600,496.4783020019531000,7.9903311729431150,39.0974311828613300,49,101,62,67,54,1665,2147443264,2147797961,2147581741,2147823835,2147308388,2147453888,2147758372,2148273947,2380,6,14,8065
1352249534,5804,9.1999998092651370,198.9403991699218800,507.3587036132812500,7.6496000289916990,38.6597785949707000,50,100,62,67,54,1663,2147440356,2147795520,2147582436,2147827584,2147308470,2147452315,2147760630,2148275410,3500,6,14,23533
1352253134,5806,798.0000000000000000,199.5225067138672000,509.7000122070312500,7.5761728286743160,38.6645011901855500,50,99,61,67,54,1662,2147435977,2147796105,2147580141,2147828425,2147307949,2147451355,2147764096,2148277952,2795,6,14,4050
1352256734,5803,9.0000000000000000,200.1540985107422000,510.8562927246094000,7.5398969650268555,38.6459083557128900,50,98,63,67,53,1661,2147438116,2147797156,2147583177,2147825993,2147305362,2147446674,2147763666,2148278006,3507,6,14,23341
1352260334,5804,8.8000001907348630,202.0164947509765600,513.1691284179688000,7.4673080444335940,38.5730018615722660,50,99,64,66,54,1661,2147439149,2147799259,2147581997,2147827565,2147305362,2147451099,2147763620,2148276534,3430,6,14,2650
1352263934,5806,922.0000000000000000,202.1165008544922000,513.3535156250000000,7.4615221023559570,38.5697898864746100,50,99,62,68,55,1658,2147435684,2147796964,2147583670,2147832941,2147309769,2147452242,2147762249,2148275300,34,6,14,58928
1352267534,5806,9.3999996185302730,201.5234985351562500,511.2380981445312500,7.5279169082641600,38.5686111450195300,50,101,63,65,54,1653,2147439058,2147797558,2147583451,2147826450,2147308818,2147450898,2147761124,2148277888,302,6,14,45526
1352271134,5805,996.0000000000000000,201.1363067626953000,511.9378051757812500,7.5059580802917480,38.6052093505859400,50,100,62,66,54,1651,2147439716,2147796736,2147581357,2147830290,2147308169,2147450834,2147763501,2148277915,193,6,14,40004
1352274734,5806,9.5000000000000000,199.7115936279297000,512.0469970703125000,7.5025320053100590,38.6938591003418000,50,98,62,67,53,1650,2147440338,2147794614,2147583341,2147831012,2147308022,2147451894,2147767917,2148276818,3205,6,14,2797
1352278334,5806,10.0000000000000000,202.2454071044922000,512.2459716796875000,7.4962859153747560,38.5424308776855500,50,99,61,66,55,1648,2147438665,2147797101,2147584146,2147827803,2147305910,2147449883,2147764992,2148277046,178,6,14,28461
1352281934,5804,9.3000001907348630,201.4250030517578000,512.3485107421875000,7.4930691719055180,38.5948905944824200,49,103,62,67,53,1646,2147440694,2147798701,2147584118,2147828096,2147306523,2147449170,2147766080,2148275757,3348,6,14,35109
1352285534,5803,9.3000001907348630,201.9178924560547000,514.0004882812500000,7.4412050247192380,38.5941085815429700,50,100,63,67,54,1649,2147434368,2147798363,2147580068,2147829741,2147307136,2147447908,2147766656,2148278564,922,6,14,58531
1352289134,5805,96.0000000000000000,202.9351043701172000,514.2446899414062000,7.4335389137268070,38.5358581542968750,50,103,61,66,54,1650,2147439222,2147795712,2147582994,2147828900,2147306221,2147454317,2147760877,2148274276,3375,6,14,65456
1352292734,5806,9.3000001907348630,201.9783935546875000,514.6923217773438000,7.4194841384887695,38.6017799377441400,50,100,62,67,53,1651,2147437796,2147798189,2147582308,2147829549,2147306112,2147455040,2147761645,2148276763,3339,6,14,56848
1352296334,5804,9.8000001907348630,202.1707000732422000,515.0692749023438000,7.4076409339904785,38.5972404479980500,50,99,63,66,54,1651,2147435291,2147794102,2147581248,2147829376,2147308150,2147450212,2147760502,2148277065,329,6,14,38561
1352299934,5806,1024.0000000000000000,203.8368988037109400,514.9962768554688000,7.4099359512329100,38.4947013854980500,50,98,62,66,53,1652,2147436571,2147795236,2147581677,2147828690,2147303926,2147452544,2147767341,2148276754,179,6,14,42694
1352303534,5805,1022.0000000000000000,202.7610015869140600,514.5272216796875000,7.4246668815612790,38.5510597229003900,50,101,63,65,53,1650,2147432832,2147797019,2147578084,2147829723,2147309074,2147451483,2147765339,2148279332,46,6,14,38301
1352307134,5804,1001.0000000000000000,202.5503997802734400,515.7672119140625000,7.3857221603393555,38.5860214233398440,50,101,62,67,53,1651,2147435556,2147794614,2147584795,2147828150,2147310198,2147450944,2147761280,2148275995,2915,6,14,2151
1352310734,5803,9.1999998092651370,203.3482971191406200,516.4948730468750000,7.3628640174865720,38.5501785278320300,50,100,62,67,54,1658,2147437348,2147794907,2147582866,2147831204,2147308662,2147452928,2147760228,2148278784,3592,6,14,20092
1352314334,5803,963.0000000000000000,203.3054962158203000,517.1901245117188000,7.3410210609436035,38.5657882690429700,50,99,64,65,53,1660,2147438098,2147798966,2147582537,2147827328,2147308544,2147452580,2147765796,2148280292,3586,6,14,54798
1352317934,5803,945.0000000000000000,204.2718963623047000,518.2288208007812000,7.3083767890930180,38.5254211425781250,50,99,62,67,53,1663,2147437202,2147797714,2147581394,2147828342,2147308096,2147451894,2147762441,2148278208,3003,6,14,15399
1352321534,5803,9.6999998092651370,205.1295928955078000,517.2001953125000000,7.3407030105590820,38.4556694030761700,50,100,62,67,53,1665,2147436096,2147797915,2147581622,2147832365,2147309156,2147455780,2147764992,2148279414,3589,6,15,63897
1352325134,5806,92.0000000000000000,204.7171936035156200,516.9285278320312000,7.3492398262023930,38.4755897521972660,50,102,62,65,52,1665,2147439286,2147798043,2147582482,2147828525,2147306697,2147448886,2147760777,2148278848,3295,6,14,1174
1352328734,5805,9.1000003814697270,203.9777069091797000,517.1671752929688000,7.3417410850524900,38.5249099731445300,50,98,62,66,53,1668,2147438436,2147798153,2147583844,2147828041,2147310390,2147449737,2147762880,2148280475,39,6,14,21073
1352332334,5804,981.0000000000000000,203.3415985107422000,517.2792968750000000,7.3382167816162110,38.5653190612793000,50,99,62,66,53,1669,2147439259,2147793462,2147581632,2147828169,2147305792,2147454345,2147765760,2148277897,3486,6,14,63635
1352335934,5807,994.0000000000000000,204.7879028320312500,517.1870117187500000,7.3411188125610350,38.4758796691894500,50,103,62,66,52,1670,2147434614,2147797101,2147583085,2147831625,2147305380,2147450861,2147762752,2148280713,197,6,14,21643
1352339534,5805,10.6999998092651370,203.8928985595703000,515.5418701171875000,7.3927998542785645,38.5010108947753900,50,100,63,65,53,1671,2147436534,2147796379,2147579803,2147826413,2147310793,2147453558,2147760429,2148281362,2806,6,14,51007
1352343134,5804,1051.0000000000000000,203.3701019287109400,515.4072875976562000,7.3970260620117190,38.5295181274414060,50,104,63,67,53,1675,2147439131,2147794779,2147580608,2147829906,2147311122,2147450249,2147759250,2148279936,3178,6,14,51583
1352346734,5804,1085.0000000000000000,203.5276031494140600,514.8601074218750000,7.4142131805419920,38.5113601684570300,50,102,64,65,54,1673,2147441051,2147794925,2147582710,2147827346,2147307986,2147452370,2147761280,2148278546,3394,6,14,53460
1352350334,5807,10.6999998092651370,203.4606933593750000,515.0330200195312000,7.4087829589843750,38.5183486938476560,50,99,63,65,53,1668,2147440630,2147794258,2147581211,2147828361,2147312265,2147449344,2147760237,2148280411,1,6,14,40136
1352353934,5803,10.1999998092651370,203.0852050781250000,515.7965698242188000,7.3847980499267580,38.5539398193359400,50,101,62,67,52,1669,2147439021,2147798564,2147582546,2147828251,2147307675,2147454189,2147763309,2148276909,3471,6,14,17857
1352357534,5807,1006.0000000000000000,203.8459014892578000,517.4771118164062000,7.3320031166076660,38.5382881164550800,50,101,63,67,53,1669,2147438162,2147795026,2147581979,2147828077,2147306715,2147455040,2147763995,2148278985,43,6,14,24519
1352361134,5803,1012.0000000000000000,204.0263977050781200,517.1458740234375000,7.3424072265625000,38.5208892822265600,50,101,63,67,53,1668,2147439332,2147796745,2147581138,2147829997,2147305600,2147452864,2147761280,2148278738,3522,6,14,33913
1352364734,5806,10.1999998092651370,205.7841033935547000,518.6234741210938000,7.2959709167480470,38.4417304992675800,49,102,63,66,53,1668,2147437412,2147797632,2147584018,2147829220,2147308790,2147452278,2147764635,2148279259,612,6,14,14612
1352368334,5803,10.8000001907348630,203.9432983398437500,517.5510253906250000,7.3296790122985840,38.5332984924316400,50,100,62,66,53,1670,2147442002,2147793417,2147582976,2147828571,2147306907,2147452635,2147761179,2148275245,3180,6,14,7071
1352371934,5805,9.5000000000000000,204.6069946289062500,517.6315917968750000,7.3271470069885250,38.4942207336425800,50,100,63,67,55,1669,2147437083,2147798464,2147583872,2147833334,2147307254,2147453065,2147764772,2148278464,3218,6,14,44948
1352375534,5805,9.1999998092651370,204.3665924072265600,518.6998291015625000,7.2935729026794430,38.5279502868652340,50,100,63,67,54,1666,2147437129,2147795584,2147586459,2147828022,2147308306,2147453193,2147760493,2148279104,2983,6,14,21874
1352379134,5803,984.0000000000000000,206.6737976074218800,520.1718139648438000,7.2472968101501465,38.4163589477539060,50,99,64,67,54,1668,2147434532,2147796900,2147583643,2147826898,2147308297,2147454518,2147761051,2148280557,3196,6,14,55368
1352382656,5805,10.0000000000000000,205.5720977783203000,518.5479125976562000,7.2983498573303220,38.4532890319824200,50,103,63,67,55,1669,2147438848,2147797083,2147582564,2147828736,2147306861,2147452352,2147763675,2148280548,3227,6,14,6726
